Time,TemperatureF,DewpointF,PressureIn,WindDirection,WindDirectionDegrees,WindSpeedMPH,WindSpeedGustMPH,Humidity,HourlyPrecipIn,Conditions,Clouds,dailyrainin,SoftwareType,DateUTC
2013-02-09 00:00:00,15.0,10.0,29.90,NNW,338,5.0,13.0,80,0.00,,,0.00,WUHU216HW,2013-02-09 05:00:00,
2013-02-09 00:01:00,15.0,10.0,29.90,NNW,338,5.0,13.0,80,0.00,,,0.00,WUHU216HW,2013-02-09 05:01:00,
2013-02-09 00:06:00,15.2,10.4,29.91,NNE,23,6.0,6.0,81,0.00,,,0.00,WUHU216HW,2013-02-09 05:06:00,
2013-02-09 00:11:00,15.4,10.6,29.90,North,349,5.0,7.0,81,0.00,,,0.00,WUHU216HW,2013-02-09 05:11:00,
2013-02-09 00:16:00,15.6,10.8,29.90,SW,225,0.0,10.0,81,0.00,,,0.00,WUHU216HW,2013-02-09 05:16:00,
2013-02-09 00:21:00,15.6,10.8,29.89,NW,315,4.0,10.0,81,0.00,,,0.00,WUHU216HW,2013-02-09 05:21:00,
2013-02-09 00:26:00,15.9,11.0,29.89,East,90,1.0,4.0,81,0.00,,,0.00,WUHU216HW,2013-02-09 05:26:00,
2013-02-09 00:31:00,15.9,11.1,29.89,NNW,338,3.0,4.0,81,0.00,,,0.00,WUHU216HW,2013-02-09 05:31:00,
2013-02-09 00:36:00,16.1,11.5,29.89,NE,45,3.0,7.0,82,0.00,,,0.00,WUHU216HW,2013-02-09 05:36:00,
2013-02-09 00:41:00,16.3,11.7,29.90,NE,45,1.0,7.0,82,0.00,,,0.00,WUHU216HW,2013-02-09 05:41:00,
2013-02-09 00:46:00,16.3,11.7,29.90,ENE,68,0.0,3.0,82,0.00,,,0.00,WUHU216HW,2013-02-09 05:46:00,
2013-02-09 00:51:00,16.3,11.7,29.91,WNW,293,0.0,6.0,82,0.00,,,0.00,WUHU216HW,2013-02-09 05:51:00,
2013-02-09 00:56:00,16.5,11.9,29.91,West,270,0.0,6.0,82,0.00,,,0.00,WUHU216HW,2013-02-09 05:56:00,
2013-02-09 01:01:00,16.5,11.9,29.92,NW,315,0.0,6.0,82,0.00,,,0.00,WUHU216HW,2013-02-09 06:01:00,
2013-02-09 01:06:00,16.7,12.0,29.92,West,270,0.0,2.0,82,0.00,,,0.00,WUHU216HW,2013-02-09 06:06:00,
2013-02-09 01:11:00,16.7,12.0,29.92,West,270,0.0,1.0,82,0.00,,,0.00,WUHU216HW,2013-02-09 06:11:00,
2013-02-09 01:16:00,16.7,12.0,29.92,North,0,0.0,0.0,82,0.00,,,0.00,WUHU216HW,2013-02-09 06:16:00,
2013-02-09 01:21:00,16.8,12.2,29.91,NE,45,0.0,0.0,82,0.00,,,0.00,WUHU216HW,2013-02-09 06:21:00,
2013-02-09 01:26:00,16.8,12.2,29.91,NE,45,0.0,0.0,82,0.00,,,0.00,WUHU216HW,2013-02-09 06:26:00,
2013-02-09 01:31:00,16.8,12.2,29.91,NW,315,0.0,0.0,82,0.00,,,0.00,WUHU216HW,2013-02-09 06:31:00,
2013-02-09 01:36:00,16.8,12.2,29.91,NNW,338,0.0,0.0,82,0.00,,,0.00,WUHU216HW,2013-02-09 06:36:00,
2013-02-09 01:41:00,16.8,12.2,29.90,North,0,0.0,0.0,82,0.00,,,0.00,WUHU216HW,2013-02-09 06:41:00,
2013-02-09 01:47:00,16.8,12.2,29.89,NW,315,0.0,0.0,82,0.00,,,0.00,WUHU216HW,2013-02-09 06:47:00,
2013-02-09 01:52:00,16.7,12.0,29.89,North,0,0.0,0.0,82,0.00,,,0.00,WUHU216HW,2013-02-09 06:52:00,
2013-02-09 01:57:00,16.5,11.6,29.89,NNW,338,0.0,0.0,81,0.00,,,0.00,WUHU216HW,2013-02-09 06:57:00,
2013-02-09 02:02:00,16.3,11.4,29.90,NE,45,0.0,0.0,81,0.00,,,0.00,WUHU216HW,2013-02-09 07:02:00,
2013-02-09 02:07:00,16.3,11.4,29.91,NNW,338,0.0,0.0,81,0.00,,,0.00,WUHU216HW,2013-02-09 07:07:00,
2013-02-09 02:12:00,16.1,11.3,29.91,WNW,293,0.0,0.0,81,0.00,,,0.00,WUHU216HW,2013-02-09 07:12:00,
2013-02-09 02:17:00,16.1,11.3,29.91,NNE,23,0.0,0.0,81,0.00,,,0.00,WUHU216HW,2013-02-09 07:17:00,
2013-02-09 02:22:00,16.1,11.3,29.91,NE,45,0.0,0.0,81,0.00,,,0.00,WUHU216HW,2013-02-09 07:22:00,
2013-02-09 02:27:00,15.9,11.1,29.91,NNE,23,0.0,0.0,81,0.00,,,0.00,WUHU216HW,2013-02-09 07:27:00,
2013-02-09 02:32:00,15.9,11.1,29.92,NW,315,0.0,0.0,81,0.00,,,0.00,WUHU216HW,2013-02-09 07:32:00,
2013-02-09 02:37:00,15.8,11.0,29.92,WNW,293,0.0,0.0,81,0.00,,,0.00,WUHU216HW,2013-02-09 07:37:00,
2013-02-09 02:42:00,15.6,10.8,29.92,NW,315,0.0,0.0,81,0.00,,,0.00,WUHU216HW,2013-02-09 07:42:00,
2013-02-09 02:47:00,15.6,10.8,29.92,NE,45,0.0,0.0,81,0.00,,,0.00,WUHU216HW,2013-02-09 07:47:00,
2013-02-09 02:52:00,15.6,10.8,29.92,NE,45,0.0,0.0,81,0.00,,,0.00,WUHU216HW,2013-02-09 07:52:00,
2013-02-09 02:57:00,15.4,10.6,29.92,NNE,23,0.0,0.0,81,0.00,,,0.00,WUHU216HW,2013-02-09 07:57:00,
2013-02-09 03:02:00,15.4,10.6,29.92,NE,45,0.0,0.0,81,0.00,,,0.00,WUHU216HW,2013-02-09 08:02:00,
2013-02-09 03:07:00,15.4,10.6,29.91,NNW,338,0.0,0.0,81,0.00,,,0.00,WUHU216HW,2013-02-09 08:07:00,
2013-02-09 03:12:00,15.4,10.6,29.92,NE,45,0.0,0.0,81,0.00,,,0.00,WUHU216HW,2013-02-09 08:12:00,
2013-02-09 03:17:00,15.2,10.4,29.92,NNE,23,0.0,0.0,81,0.00,,,0.00,WUHU216HW,2013-02-09 08:17:00,
2013-02-09 03:22:00,15.2,10.4,29.92,North,0,0.0,0.0,81,0.00,,,0.00,WUHU216HW,2013-02-09 08:22:00,
2013-02-09 03:27:00,15.0,10.2,29.91,NW,315,0.0,0.0,81,0.00,,,0.00,WUHU216HW,2013-02-09 08:27:00,
2013-02-09 03:32:00,15.0,10.2,29.91,WSW,248,0.0,0.0,81,0.00,,,0.00,WUHU216HW,2013-02-09 08:32:00,
2013-02-09 03:37:00,15.0,10.2,29.92,NNW,338,0.0,0.0,81,0.00,,,0.00,WUHU216HW,2013-02-09 08:37:00,
2013-02-09 03:42:00,15.0,10.2,29.91,North,0,0.0,0.0,81,0.00,,,0.00,WUHU216HW,2013-02-09 08:42:00,
2013-02-09 03:47:00,14.9,10.1,29.91,NE,45,0.0,0.0,81,0.00,,,0.00,WUHU216HW,2013-02-09 08:47:00,
2013-02-09 03:52:00,14.9,10.1,29.91,North,0,0.0,0.0,81,0.00,,,0.00,WUHU216HW,2013-02-09 08:52:00,
2013-02-09 03:57:00,14.9,10.1,29.91,South,180,0.0,0.0,81,0.00,,,0.00,WUHU216HW,2013-02-09 08:57:00,
2013-02-09 04:02:00,15.0,10.2,29.91,NE,45,0.0,0.0,81,0.00,,,0.00,WUHU216HW,2013-02-09 09:02:00,
2013-02-09 04:07:00,14.9,10.1,29.91,North,0,0.0,0.0,81,0.00,,,0.00,WUHU216HW,2013-02-09 09:07:00,
2013-02-09 04:12:00,14.9,10.1,29.91,NNE,23,0.0,0.0,81,0.00,,,0.00,WUHU216HW,2013-02-09 09:12:00,
2013-02-09 04:17:00,14.9,10.1,29.91,WNW,293,0.0,0.0,81,0.00,,,0.00,WUHU216HW,2013-02-09 09:17:00,
2013-02-09 04:22:00,14.9,10.1,29.91,North,0,0.0,0.0,81,0.00,,,0.00,WUHU216HW,2013-02-09 09:22:00,
2013-02-09 04:27:00,14.9,10.1,29.91,NNE,23,0.0,0.0,81,0.00,,,0.00,WUHU216HW,2013-02-09 09:27:00,
2013-02-09 04:32:00,14.9,10.1,29.91,ENE,68,0.0,0.0,81,0.00,,,0.00,WUHU216HW,2013-02-09 09:32:00,
2013-02-09 04:38:00,14.9,10.1,29.91,NNW,338,0.0,0.0,81,0.00,,,0.00,WUHU216HW,2013-02-09 09:38:00,
2013-02-09 04:43:00,14.7,9.9,29.91,North,0,0.0,0.0,81,0.00,,,0.00,WUHU216HW,2013-02-09 09:43:00,
2013-02-09 04:49:00,14.7,9.9,29.91,North,0,0.0,0.0,81,0.00,,,0.00,WUHU216HW,2013-02-09 09:49:00,
2013-02-09 04:54:00,14.7,9.9,29.91,North,0,0.0,0.0,81,0.00,,,0.00,WUHU216HW,2013-02-09 09:54:00,
2013-02-09 04:59:00,14.5,9.7,29.91,NNE,23,0.0,0.0,81,0.00,,,0.00,WUHU216HW,2013-02-09 09:59:00,
2013-02-09 05:04:00,14.3,9.5,29.92,North,0,0.0,0.0,81,0.00,,,0.00,WUHU216HW,2013-02-09 10:04:00,
2013-02-09 05:09:00,14.1,9.3,29.92,NE,45,0.0,0.0,81,0.00,,,0.00,WUHU216HW,2013-02-09 10:09:00,
2013-02-09 05:14:00,14.1,9.3,29.92,North,0,0.0,0.0,81,0.00,,,0.00,WUHU216HW,2013-02-09 10:14:00,
2013-02-09 05:19:00,14.0,8.9,29.92,NNE,23,0.0,0.0,80,0.00,,,0.00,WUHU216HW,2013-02-09 10:19:00,
2013-02-09 05:24:00,13.8,8.7,29.92,ENE,68,0.0,0.0,80,0.00,,,0.00,WUHU216HW,2013-02-09 10:24:00,
2013-02-09 05:29:00,13.8,8.7,29.92,NNE,23,0.0,0.0,80,0.00,,,0.00,WUHU216HW,2013-02-09 10:29:00,
2013-02-09 05:34:00,13.6,8.6,29.92,NNW,338,0.0,0.0,80,0.00,,,0.00,WUHU216HW,2013-02-09 10:34:00,
2013-02-09 05:39:00,13.6,8.6,29.92,NE,45,0.0,0.0,80,0.00,,,0.00,WUHU216HW,2013-02-09 10:39:00,
2013-02-09 05:45:00,13.6,8.6,29.92,NW,315,0.0,0.0,80,0.00,,,0.00,WUHU216HW,2013-02-09 10:45:00,
2013-02-09 05:50:00,13.2,8.2,29.92,NE,45,0.0,0.0,80,0.00,,,0.00,WUHU216HW,2013-02-09 10:50:00,
2013-02-09 05:55:00,13.2,8.2,29.92,North,0,0.0,0.0,80,0.00,,,0.00,WUHU216HW,2013-02-09 10:55:00,
2013-02-09 06:00:00,13.2,8.2,29.92,West,270,0.0,0.0,80,0.00,,,0.00,WUHU216HW,2013-02-09 11:00:00,
2013-02-09 06:05:00,13.1,8.0,29.92,NE,45,0.0,0.0,80,0.00,,,0.00,WUHU216HW,2013-02-09 11:05:00,
2013-02-09 06:10:00,12.9,7.8,29.93,North,0,0.0,0.0,80,0.00,,,0.00,WUHU216HW,2013-02-09 11:10:00,
2013-02-09 06:15:00,12.9,7.8,29.93,NNW,338,0.0,0.0,80,0.00,,,0.00,WUHU216HW,2013-02-09 11:15:00,
2013-02-09 06:20:00,12.7,7.7,29.93,NNW,338,0.0,0.0,80,0.00,,,0.00,WUHU216HW,2013-02-09 11:20:00,
2013-02-09 06:25:00,12.5,7.5,29.93,North,0,0.0,0.0,80,0.00,,,0.00,WUHU216HW,2013-02-09 11:25:00,
2013-02-09 06:30:00,12.3,7.3,29.93,North,0,0.0,0.0,80,0.00,,,0.00,WUHU216HW,2013-02-09 11:30:00,
2013-02-09 06:35:00,12.3,7.3,29.94,NNW,338,0.0,0.0,80,0.00,,,0.00,WUHU216HW,2013-02-09 11:35:00,
2013-02-09 06:40:00,12.3,7.3,29.94,North,0,0.0,0.0,80,0.00,,,0.00,WUHU216HW,2013-02-09 11:40:00,
2013-02-09 06:45:00,12.0,6.9,29.94,WNW,293,0.0,0.0,80,0.00,,,0.00,WUHU216HW,2013-02-09 11:45:00,
2013-02-09 06:50:00,12.0,6.9,29.94,NNE,23,0.0,0.0,80,0.00,,,0.00,WUHU216HW,2013-02-09 11:50:00,
2013-02-09 06:55:00,12.0,6.9,29.94,North,0,0.0,0.0,80,0.00,,,0.00,WUHU216HW,2013-02-09 11:55:00,
2013-02-09 07:03:00,11.8,6.8,29.95,North,0,0.0,0.0,80,0.00,,,0.00,WUHU216HW,2013-02-09 12:03:00,
2013-02-09 07:08:00,11.4,6.4,29.96,NNW,338,0.0,0.0,80,0.00,,,0.00,WUHU216HW,2013-02-09 12:08:00,
2013-02-09 07:13:00,11.4,6.4,29.97,NNW,338,0.0,0.0,80,0.00,,,0.00,WUHU216HW,2013-02-09 12:13:00,
2013-02-09 07:18:00,11.4,6.2,29.97,ENE,68,0.0,0.0,80,0.00,,,0.00,WUHU216HW,2013-02-09 12:18:00,
2013-02-09 07:23:00,11.3,6.2,29.97,West,270,0.0,0.0,80,0.00,,,0.00,WUHU216HW,2013-02-09 12:23:00,
2013-02-09 07:28:00,11.4,6.4,29.97,WNW,293,0.0,0.0,80,0.00,,,0.00,WUHU216HW,2013-02-09 12:28:00,
2013-02-09 07:33:00,11.3,6.2,29.97,ESE,113,0.0,0.0,80,0.00,,,0.00,WUHU216HW,2013-02-09 12:33:00,
2013-02-09 07:38:00,11.1,5.7,29.97,North,0,0.0,0.0,79,0.00,,,0.00,WUHU216HW,2013-02-09 12:38:00,
2013-02-09 07:43:00,11.1,5.7,29.97,NE,45,0.0,0.0,79,0.00,,,0.00,WUHU216HW,2013-02-09 12:43:00,
2013-02-09 07:48:00,11.1,5.7,29.97,NNE,23,0.0,0.0,79,0.00,,,0.00,WUHU216HW,2013-02-09 12:48:00,
2013-02-09 07:53:00,11.1,5.7,29.97,NE,45,0.0,0.0,79,0.00,,,0.00,WUHU216HW,2013-02-09 12:53:00,
2013-02-09 07:58:00,11.1,5.7,29.98,East,90,0.0,0.0,79,0.00,,,0.00,WUHU216HW,2013-02-09 12:58:00,
2013-02-09 08:03:00,11.1,5.7,29.98,NNE,23,0.0,0.0,79,0.00,,,0.00,WUHU216HW,2013-02-09 13:03:00,
2013-02-09 08:08:00,11.1,5.7,29.98,ENE,68,0.0,0.0,79,0.00,,,0.00,WUHU216HW,2013-02-09 13:08:00,
2013-02-09 08:13:00,10.9,5.6,29.98,NE,45,0.0,0.0,79,0.00,,,0.00,WUHU216HW,2013-02-09 13:13:00,
2013-02-09 08:18:00,10.9,5.6,29.98,East,90,0.0,0.0,79,0.00,,,0.00,WUHU216HW,2013-02-09 13:18:00,
2013-02-09 08:23:00,10.9,5.6,29.99,South,180,0.0,0.0,79,0.00,,,0.00,WUHU216HW,2013-02-09 13:23:00,
2013-02-09 08:28:00,10.9,5.6,29.99,NNE,23,0.0,0.0,79,0.00,,,0.00,WUHU216HW,2013-02-09 13:28:00,
2013-02-09 08:33:00,11.1,5.7,29.99,NE,45,0.0,0.0,79,0.00,,,0.00,WUHU216HW,2013-02-09 13:33:00,
2013-02-09 08:38:00,10.9,5.6,30.00,NW,315,0.0,0.0,79,0.00,,,0.00,WUHU216HW,2013-02-09 13:38:00,
2013-02-09 08:43:00,10.9,5.3,30.01,NNW,338,0.0,0.0,78,0.00,,,0.00,WUHU216HW,2013-02-09 13:43:00,
2013-02-09 08:48:00,10.9,5.3,30.01,SE,135,0.0,0.0,78,0.00,,,0.00,WUHU216HW,2013-02-09 13:48:00,
2013-02-09 08:53:00,10.9,5.5,30.01,North,0,0.0,0.0,78,0.00,,,0.00,WUHU216HW,2013-02-09 13:53:00,
2013-02-09 08:58:00,10.9,5.3,30.01,NNW,338,0.0,0.0,78,0.00,,,0.00,WUHU216HW,2013-02-09 13:58:00,
2013-02-09 09:03:00,10.9,5.3,30.01,North,0,0.0,0.0,78,0.00,,,0.00,WUHU216HW,2013-02-09 14:03:00,
2013-02-09 09:09:00,10.9,5.3,30.02,West,270,0.0,0.0,78,0.00,,,0.00,WUHU216HW,2013-02-09 14:09:00,
2013-02-09 09:14:00,11.1,5.5,30.02,NNW,338,0.0,0.0,78,0.00,,,0.00,WUHU216HW,2013-02-09 14:14:00,
2013-02-09 09:19:00,10.9,5.0,30.02,NNW,338,0.0,0.0,77,0.00,,,0.00,WUHU216HW,2013-02-09 14:19:00,
2013-02-09 09:24:00,10.9,5.0,30.02,North,0,0.0,0.0,77,0.00,,,0.00,WUHU216HW,2013-02-09 14:24:00,
2013-02-09 09:29:00,11.1,5.2,30.02,NNE,23,0.0,0.0,77,0.00,,,0.00,WUHU216HW,2013-02-09 14:29:00,
2013-02-09 09:35:00,11.3,5.3,30.02,NE,45,0.0,0.0,77,0.00,,,0.00,WUHU216HW,2013-02-09 14:35:00,
2013-02-09 09:40:00,11.3,5.1,30.02,SSE,158,0.0,0.0,76,0.00,,,0.00,WUHU216HW,2013-02-09 14:40:00,
2013-02-09 09:46:00,11.4,5.2,30.03,NNW,338,0.0,0.0,76,0.00,,,0.00,WUHU216HW,2013-02-09 14:46:00,
2013-02-09 09:51:00,11.4,5.2,30.02,NNE,23,0.0,0.0,76,0.00,,,0.00,WUHU216HW,2013-02-09 14:51:00,
2013-02-09 09:56:00,11.6,5.4,30.02,East,90,0.0,0.0,76,0.00,,,0.00,WUHU216HW,2013-02-09 14:56:00,
2013-02-09 10:02:00,11.6,5.1,30.03,NNE,23,0.0,0.0,75,0.00,,,0.00,WUHU216HW,2013-02-09 15:02:00,
2013-02-09 10:07:00,11.6,5.1,30.03,NW,315,0.0,0.0,75,0.00,,,0.00,WUHU216HW,2013-02-09 15:07:00,
2013-02-09 10:12:00,11.8,5.3,30.04,WNW,293,0.0,0.0,75,0.00,,,0.00,WUHU216HW,2013-02-09 15:12:00,
2013-02-09 10:18:00,11.8,5.3,30.04,NNW,338,0.0,0.0,75,0.00,,,0.00,WUHU216HW,2013-02-09 15:18:00,
2013-02-09 10:23:00,12.0,5.5,30.04,WNW,293,0.0,0.0,75,0.00,,,0.00,WUHU216HW,2013-02-09 15:23:00,
2013-02-09 10:28:00,12.0,5.5,30.04,NE,45,0.0,0.0,75,0.00,,,0.00,WUHU216HW,2013-02-09 15:28:00,
2013-02-09 10:33:00,12.2,5.4,30.04,SE,135,0.0,0.0,74,0.00,,,0.00,WUHU216HW,2013-02-09 15:33:00,
2013-02-09 10:38:00,12.3,5.6,30.05,NW,315,0.0,0.0,74,0.00,,,0.00,WUHU216HW,2013-02-09 15:38:00,
2013-02-09 10:43:00,12.3,5.6,30.05,ENE,68,0.0,0.0,74,0.00,,,0.00,WUHU216HW,2013-02-09 15:43:00,
2013-02-09 10:48:00,12.3,5.6,30.05,NNE,23,0.0,0.0,74,0.00,,,0.00,WUHU216HW,2013-02-09 15:48:00,
2013-02-09 10:53:00,12.3,5.5,30.05,SE,135,0.0,0.0,73,0.00,,,0.00,WUHU216HW,2013-02-09 15:53:00,
2013-02-09 10:59:00,12.7,5.6,30.05,WNW,293,0.0,0.0,73,0.00,,,0.00,WUHU216HW,2013-02-09 15:59:00,
2013-02-09 11:04:00,12.7,5.3,30.05,NW,315,0.0,0.0,72,0.00,,,0.00,WUHU216HW,2013-02-09 16:04:00,
2013-02-09 11:09:00,12.9,5.5,30.05,North,0,0.0,0.0,72,0.00,,,0.00,WUHU216HW,2013-02-09 16:09:00,
2013-02-09 11:14:00,12.9,5.5,30.05,SSE,158,0.0,0.0,72,0.00,,,0.00,WUHU216HW,2013-02-09 16:14:00,
2013-02-09 11:19:00,13.2,5.6,30.05,North,0,0.0,0.0,71,0.00,,,0.00,WUHU216HW,2013-02-09 16:19:00,
2013-02-09 11:24:00,13.2,5.6,30.06,NNE,23,0.0,0.0,71,0.00,,,0.00,WUHU216HW,2013-02-09 16:24:00,
2013-02-09 11:29:00,13.2,5.6,30.06,SSE,158,0.0,0.0,71,0.00,,,0.00,WUHU216HW,2013-02-09 16:29:00,
2013-02-09 11:34:00,13.6,5.7,30.06,WNW,293,0.0,0.0,70,0.00,,,0.00,WUHU216HW,2013-02-09 16:34:00,
2013-02-09 11:39:00,13.6,5.7,30.06,NNE,23,0.0,0.0,70,0.00,,,0.00,WUHU216HW,2013-02-09 16:39:00,
2013-02-09 11:44:00,13.8,5.9,30.06,North,0,0.0,0.0,70,0.00,,,0.00,WUHU216HW,2013-02-09 16:44:00,
2013-02-09 11:50:00,14.3,6.4,30.05,NW,315,0.0,0.0,70,0.00,,,0.00,WUHU216HW,2013-02-09 16:50:00,
2013-02-09 11:55:00,14.5,6.3,30.05,NNE,23,0.0,0.0,69,0.00,,,0.00,WUHU216HW,2013-02-09 16:55:00,
2013-02-09 12:00:00,14.7,6.0,30.05,WNW,293,0.0,0.0,68,0.00,,,0.00,WUHU216HW,2013-02-09 17:00:00,
2013-02-09 12:05:00,14.9,6.2,30.05,NNE,23,0.0,0.0,68,0.00,,,0.00,WUHU216HW,2013-02-09 17:05:00,
2013-02-09 12:10:00,14.9,6.2,30.05,NNW,338,0.0,0.0,68,0.00,,,0.00,WUHU216HW,2013-02-09 17:10:00,
2013-02-09 12:15:00,15.2,6.5,30.05,NNE,23,0.0,0.0,68,0.00,,,0.00,WUHU216HW,2013-02-09 17:15:00,
2013-02-09 12:20:00,15.4,6.8,30.05,NE,45,0.0,0.0,67,0.00,,,0.00,WUHU216HW,2013-02-09 17:20:00,
2013-02-09 12:25:00,15.8,6.6,30.05,NW,315,0.0,0.0,67,0.00,,,0.00,WUHU216HW,2013-02-09 17:25:00,
2013-02-09 12:30:00,15.9,6.8,30.04,East,90,0.0,0.0,67,0.00,,,0.00,WUHU216HW,2013-02-09 17:30:00,
2013-02-09 12:36:00,16.3,7.2,30.04,ESE,113,0.0,0.0,67,0.00,,,0.00,WUHU216HW,2013-02-09 17:36:00,
2013-02-09 12:41:00,16.8,8.0,30.04,SE,135,0.0,0.0,68,0.00,,,0.00,WUHU216HW,2013-02-09 17:41:00,
2013-02-09 12:47:00,17.2,7.7,30.04,SE,135,0.0,0.0,66,0.00,,,0.00,WUHU216HW,2013-02-09 17:47:00,
2013-02-09 12:52:00,17.2,7.7,30.05,WNW,293,0.0,0.0,66,0.00,,,0.00,WUHU216HW,2013-02-09 17:52:00,
2013-02-09 12:58:00,16.8,7.0,30.05,North,0,0.0,0.0,65,0.00,,,0.00,WUHU216HW,2013-02-09 17:58:00,
2013-02-09 13:03:00,16.8,7.0,30.05,NNE,23,0.0,0.0,65,0.00,,,0.00,WUHU216HW,2013-02-09 18:03:00,
2013-02-09 13:08:00,16.8,7.0,30.05,SE,135,0.0,0.0,65,0.00,,,0.00,WUHU216HW,2013-02-09 18:08:00,
2013-02-09 13:13:00,16.7,6.5,30.06,NE,45,0.0,0.0,64,0.00,,,0.00,WUHU216HW,2013-02-09 18:13:00,
2013-02-09 13:18:00,16.5,6.3,30.06,SE,135,0.0,0.0,64,0.00,,,0.00,WUHU216HW,2013-02-09 18:18:00,
2013-02-09 13:23:00,16.5,6.7,30.06,NNW,338,0.0,0.0,65,0.00,,,0.00,WUHU216HW,2013-02-09 18:23:00,
2013-02-09 13:28:00,16.7,6.8,30.07,West,270,0.0,0.0,65,0.00,,,0.00,WUHU216HW,2013-02-09 18:28:00,
2013-02-09 13:33:00,16.8,7.0,30.07,North,0,0.0,0.0,65,0.00,,,0.00,WUHU216HW,2013-02-09 18:33:00,
2013-02-09 13:39:00,17.2,7.4,30.07,East,90,0.0,0.0,65,0.00,,,0.00,WUHU216HW,2013-02-09 18:39:00,
2013-02-09 13:45:00,17.4,7.2,30.08,NNW,338,0.0,0.0,64,0.00,,,0.00,WUHU216HW,2013-02-09 18:45:00,
2013-02-09 13:50:00,17.7,7.6,30.08,NNW,338,0.0,0.0,64,0.00,,,0.00,WUHU216HW,2013-02-09 18:50:00,
2013-02-09 13:55:00,17.7,7.6,30.08,NNE,23,0.0,0.0,64,0.00,,,0.00,WUHU216HW,2013-02-09 18:55:00,
2013-02-09 14:00:00,18.3,8.0,30.08,NE,45,0.0,0.0,64,0.00,,,0.00,WUHU216HW,2013-02-09 19:00:00,
2013-02-09 14:06:00,18.5,7.9,30.08,West,270,0.0,0.0,63,0.00,,,0.00,WUHU216HW,2013-02-09 19:06:00,
2013-02-09 14:11:00,19.2,8.5,30.08,NW,315,0.0,0.0,63,0.00,,,0.00,WUHU216HW,2013-02-09 19:11:00,
2013-02-09 14:16:00,19.4,8.7,30.09,ENE,68,0.0,0.0,63,0.00,,,0.00,WUHU216HW,2013-02-09 19:16:00,
2013-02-09 14:21:00,19.7,8.7,30.09,NNW,338,0.0,0.0,62,0.00,,,0.00,WUHU216HW,2013-02-09 19:21:00,
2013-02-09 14:26:00,19.5,8.5,30.09,North,0,5.0,5.0,62,0.00,,,0.00,WUHU216HW,2013-02-09 19:26:00,
2013-02-09 14:31:00,19.7,8.7,30.10,West,260,2.0,7.0,62,0.00,,,0.00,WUHU216HW,2013-02-09 19:31:00,
2013-02-09 14:36:00,19.5,8.5,30.10,WSW,248,3.0,19.0,62,0.00,,,0.00,WUHU216HW,2013-02-09 19:36:00,
2013-02-09 14:41:00,19.4,8.3,30.10,NE,45,3.0,19.0,62,0.00,,,0.00,WUHU216HW,2013-02-09 19:41:00,
2013-02-09 14:46:00,19.5,8.5,30.11,North,358,6.0,9.0,62,0.00,,,0.00,WUHU216HW,2013-02-09 19:46:00,
2013-02-09 14:52:00,19.2,8.2,30.11,NE,41,3.0,9.0,62,0.00,,,0.00,WUHU216HW,2013-02-09 19:52:00,
2013-02-09 14:57:00,19.4,8.3,30.11,WSW,248,2.0,7.0,62,0.00,,,0.00,WUHU216HW,2013-02-09 19:57:00,
2013-02-09 15:02:00,19.5,8.5,30.11,WSW,248,4.0,6.0,62,0.00,,,0.00,WUHU216HW,2013-02-09 20:02:00,
2013-02-09 15:08:00,19.9,8.5,30.11,NNE,23,5.0,7.0,61,0.00,,,0.00,WUHU216HW,2013-02-09 20:08:00,
2013-02-09 15:14:00,19.9,8.5,30.12,NE,52,3.0,7.0,61,0.00,,,0.00,WUHU216HW,2013-02-09 20:14:00,
2013-02-09 15:19:00,19.4,7.7,30.12,NW,315,4.0,6.0,60,0.00,,,0.00,WUHU216HW,2013-02-09 20:19:00,
2013-02-09 15:24:00,19.0,7.3,30.12,ENE,68,4.0,7.0,60,0.00,,,0.00,WUHU216HW,2013-02-09 20:24:00,
2013-02-09 15:29:00,18.8,7.5,30.12,NNE,19,6.0,9.0,61,0.00,,,0.00,WUHU216HW,2013-02-09 20:29:00,
2013-02-09 15:34:00,18.6,7.0,30.12,SSW,203,6.0,9.0,60,0.00,,,0.00,WUHU216HW,2013-02-09 20:34:00,
2013-02-09 15:39:00,18.3,7.0,30.13,North,2,2.0,7.0,61,0.00,,,0.00,WUHU216HW,2013-02-09 20:39:00,
2013-02-09 15:44:00,18.1,6.9,30.13,North,0,0.0,7.0,61,0.00,,,0.00,WUHU216HW,2013-02-09 20:44:00,
2013-02-09 15:49:00,17.9,6.7,30.13,South,180,0.0,10.0,61,0.00,,,0.00,WUHU216HW,2013-02-09 20:49:00,
2013-02-09 15:55:00,17.7,6.5,30.14,NE,45,2.0,10.0,61,0.00,,,0.00,WUHU216HW,2013-02-09 20:55:00,
2013-02-09 16:00:00,17.7,6.5,30.14,NW,323,3.0,5.0,61,0.00,,,0.00,WUHU216HW,2013-02-09 21:00:00,
2013-02-09 16:05:00,17.4,6.2,30.14,NW,315,4.0,4.0,61,0.00,,,0.00,WUHU216HW,2013-02-09 21:05:00,
2013-02-09 16:10:00,17.2,6.0,30.14,North,349,4.0,6.0,61,0.00,,,0.00,WUHU216HW,2013-02-09 21:10:00,
2013-02-09 16:15:00,16.8,5.7,30.15,West,270,5.0,11.0,61,0.00,,,0.00,WUHU216HW,2013-02-09 21:15:00,
2013-02-09 16:20:00,16.7,5.1,30.15,NNE,23,0.0,11.0,60,0.00,,,0.00,WUHU216HW,2013-02-09 21:20:00,
2013-02-09 16:25:00,16.3,5.1,30.15,NNW,338,0.0,7.0,61,0.00,,,0.00,WUHU216HW,2013-02-09 21:25:00,
2013-02-09 16:30:00,16.3,5.1,30.15,North,0,5.0,7.0,61,0.00,,,0.00,WUHU216HW,2013-02-09 21:30:00,
2013-02-09 16:35:00,16.1,4.9,30.16,ENE,68,0.0,7.0,61,0.00,,,0.00,WUHU216HW,2013-02-09 21:35:00,
2013-02-09 16:40:00,15.9,4.8,30.16,NNW,341,5.0,6.0,61,0.00,,,0.00,WUHU216HW,2013-02-09 21:40:00,
2013-02-09 16:45:00,15.6,4.4,30.16,NW,322,5.0,7.0,61,0.00,,,0.00,WUHU216HW,2013-02-09 21:45:00,
2013-02-09 16:50:00,15.4,4.6,30.17,North,0,3.0,7.0,62,0.00,,,0.00,WUHU216HW,2013-02-09 21:50:00,
2013-02-09 16:55:00,15.2,4.4,30.17,ENE,66,3.0,6.0,62,0.00,,,0.00,WUHU216HW,2013-02-09 21:55:00,
2013-02-09 17:01:00,14.9,4.1,30.17,SSE,158,1.0,6.0,62,0.00,,,0.00,WUHU216HW,2013-02-09 22:01:00,
2013-02-09 17:06:00,14.7,3.9,30.18,SSW,203,0.0,5.0,62,0.00,,,0.00,WUHU216HW,2013-02-09 22:06:00,
2013-02-09 17:11:00,14.5,3.8,30.19,ESE,113,1.0,5.0,62,0.00,,,0.00,WUHU216HW,2013-02-09 22:11:00,
2013-02-09 17:17:00,14.1,3.5,30.19,NNW,338,0.0,4.0,62,0.00,,,0.00,WUHU216HW,2013-02-09 22:17:00,
2013-02-09 17:22:00,13.8,3.1,30.19,NNW,338,5.0,7.0,62,0.00,,,0.00,WUHU216HW,2013-02-09 22:22:00,
2013-02-09 17:27:00,13.8,3.1,30.20,NNE,23,0.0,7.0,62,0.00,,,0.00,WUHU216HW,2013-02-09 22:27:00,
2013-02-09 17:34:00,13.6,2.9,30.20,NNW,338,3.0,3.0,62,0.00,,,0.00,WUHU216HW,2013-02-09 22:34:00,
2013-02-09 17:40:00,13.2,2.9,30.21,South,180,0.0,8.0,63,0.00,,,0.00,WUHU216HW,2013-02-09 22:40:00,
2013-02-09 17:45:00,12.9,2.6,30.22,SW,225,6.0,8.0,63,0.00,,,0.00,WUHU216HW,2013-02-09 22:45:00,
2013-02-09 17:50:00,12.7,2.4,30.22,SSE,158,0.0,6.0,63,0.00,,,0.00,WUHU216HW,2013-02-09 22:50:00,
2013-02-09 17:55:00,12.7,2.4,30.22,SE,135,4.0,4.0,63,0.00,,,0.00,WUHU216HW,2013-02-09 22:55:00,
2013-02-09 18:00:00,12.7,2.4,30.22,NNW,338,6.0,6.0,63,0.00,,,0.00,WUHU216HW,2013-02-09 23:00:00,
2013-02-09 18:05:00,12.3,2.0,30.23,NNW,338,0.0,6.0,63,0.00,,,0.00,WUHU216HW,2013-02-09 23:05:00,
2013-02-09 18:11:00,12.0,1.7,30.23,WNW,293,2.0,5.0,63,0.00,,,0.00,WUHU216HW,2013-02-09 23:11:00,
2013-02-09 18:16:00,12.0,1.7,30.24,WNW,293,0.0,5.0,63,0.00,,,0.00,WUHU216HW,2013-02-09 23:16:00,
2013-02-09 18:21:00,12.0,1.7,30.24,WSW,248,2.0,6.0,63,0.00,,,0.00,WUHU216HW,2013-02-09 23:21:00,
2013-02-09 18:26:00,12.0,1.7,30.25,North,0,0.0,6.0,63,0.00,,,0.00,WUHU216HW,2013-02-09 23:26:00,
2013-02-09 18:31:00,11.8,1.5,30.25,NW,324,2.0,3.0,63,0.00,,,0.00,WUHU216HW,2013-02-09 23:31:00,
2013-02-09 18:36:00,11.4,1.2,30.25,WNW,293,0.0,3.0,63,0.00,,,0.00,WUHU216HW,2013-02-09 23:36:00,
2013-02-09 18:41:00,11.3,1.0,30.26,SSE,158,3.0,3.0,63,0.00,,,0.00,WUHU216HW,2013-02-09 23:41:00,
2013-02-09 18:46:00,11.1,1.2,30.26,West,270,4.0,4.0,64,0.00,,,0.00,WUHU216HW,2013-02-09 23:46:00,
2013-02-09 18:52:00,11.1,0.8,30.26,NW,315,0.0,4.0,63,0.00,,,0.00,WUHU216HW,2013-02-09 23:52:00,
2013-02-09 18:57:00,10.9,0.6,30.27,West,270,0.0,4.0,63,0.00,,,0.00,WUHU216HW,2013-02-09 23:57:00,
2013-02-09 19:02:00,10.5,0.3,30.27,SW,225,6.0,6.0,63,0.00,,,0.00,WUHU216HW,2013-02-10 00:02:00,
2013-02-09 19:07:00,10.2,0.0,30.27,WNW,293,4.0,6.0,63,0.00,,,0.00,WUHU216HW,2013-02-10 00:07:00,
2013-02-09 19:13:00,10.2,0.3,30.27,NNE,23,0.0,4.0,64,0.00,,,0.00,WUHU216HW,2013-02-10 00:13:00,
2013-02-09 19:18:00,10.0,-0.1,30.27,North,0,1.0,2.0,63,0.00,,,0.00,WUHU216HW,2013-02-10 00:18:00,
2013-02-09 19:23:00,10.0,0.1,30.27,NW,315,8.0,8.0,64,0.00,,,0.00,WUHU216HW,2013-02-10 00:23:00,
2013-02-09 19:28:00,10.0,0.1,30.27,NNE,23,2.0,8.0,64,0.00,,,0.00,WUHU216HW,2013-02-10 00:28:00,
2013-02-09 19:34:00,9.6,-0.1,30.27,North,0,4.0,4.0,64,0.00,,,0.00,WUHU216HW,2013-02-10 00:34:00,
2013-02-09 19:39:00,9.6,-0.4,30.27,NE,45,3.0,5.0,63,0.00,,,0.00,WUHU216HW,2013-02-10 00:39:00,
2013-02-09 19:44:00,9.6,-0.4,30.28,North,349,4.0,5.0,63,0.00,,,0.00,WUHU216HW,2013-02-10 00:44:00,
2013-02-09 19:49:00,9.6,-0.4,30.28,East,81,1.0,5.0,63,0.00,,,0.00,WUHU216HW,2013-02-10 00:49:00,
2013-02-09 19:54:00,9.6,-0.4,30.28,NNE,23,6.0,6.0,63,0.00,,,0.00,WUHU216HW,2013-02-10 00:54:00,
2013-02-09 20:00:00,9.6,-0.4,30.29,North,0,0.0,6.0,63,0.00,,,0.00,WUHU216HW,2013-02-10 01:00:00,
2013-02-09 20:05:00,9.6,-0.4,30.29,NNW,338,2.0,3.0,63,0.00,,,0.00,WUHU216HW,2013-02-10 01:05:00,
2013-02-09 20:10:00,9.6,-0.4,30.29,NW,315,5.0,12.0,63,0.00,,,0.00,WUHU216HW,2013-02-10 01:10:00,
2013-02-09 20:15:00,9.6,-0.4,30.29,West,270,4.0,12.0,63,0.00,,,0.00,WUHU216HW,2013-02-10 01:15:00,
2013-02-09 20:20:00,9.5,-0.6,30.29,NNW,338,2.0,4.0,63,0.00,,,0.00,WUHU216HW,2013-02-10 01:20:00,
2013-02-09 20:25:00,9.5,-0.6,30.29,NNE,23,3.0,3.0,63,0.00,,,0.00,WUHU216HW,2013-02-10 01:25:00,
2013-02-09 20:30:00,9.5,-0.6,30.29,NE,45,4.0,4.0,63,0.00,,,0.00,WUHU216HW,2013-02-10 01:30:00,
2013-02-09 20:35:00,9.5,-0.6,30.30,North,0,1.0,4.0,63,0.00,,,0.00,WUHU216HW,2013-02-10 01:35:00,
2013-02-09 20:40:00,9.1,-1.0,30.30,North,0,0.0,2.0,63,0.00,,,0.00,WUHU216HW,2013-02-10 01:40:00,
2013-02-09 20:46:00,9.1,-1.0,30.30,SW,225,0.0,3.0,63,0.00,,,0.00,WUHU216HW,2013-02-10 01:46:00,
2013-02-09 20:52:00,9.1,-1.0,30.30,North,0,0.0,8.0,63,0.00,,,0.00,WUHU216HW,2013-02-10 01:52:00,
2013-02-09 20:57:00,9.3,-0.8,30.30,WSW,248,4.0,8.0,63,0.00,,,0.00,WUHU216HW,2013-02-10 01:57:00,
2013-02-09 21:02:00,9.3,-0.8,30.30,SE,135,0.0,5.0,63,0.00,,,0.00,WUHU216HW,2013-02-10 02:02:00,
2013-02-09 21:07:00,9.1,-1.3,30.30,NW,315,0.0,0.0,62,0.00,,,0.00,WUHU216HW,2013-02-10 02:07:00,
2013-02-09 21:12:00,9.1,-1.0,30.30,WSW,248,3.0,3.0,63,0.00,,,0.00,WUHU216HW,2013-02-10 02:12:00,
2013-02-09 21:17:00,9.1,-1.3,30.31,South,188,2.0,3.0,62,0.00,,,0.00,WUHU216HW,2013-02-10 02:17:00,
2013-02-09 21:23:00,9.1,-1.3,30.30,NNE,23,1.0,3.0,62,0.00,,,0.00,WUHU216HW,2013-02-10 02:23:00,
2013-02-09 21:28:00,9.1,-1.3,30.31,NNW,338,3.0,3.0,62,0.00,,,0.00,WUHU216HW,2013-02-10 02:28:00,
2013-02-09 21:34:00,9.3,-1.1,30.31,WNW,293,4.0,4.0,62,0.00,,,0.00,WUHU216HW,2013-02-10 02:34:00,
2013-02-09 21:40:00,9.1,-1.3,30.30,SW,225,0.0,4.0,62,0.00,,,0.00,WUHU216HW,2013-02-10 02:40:00,
2013-02-09 21:45:00,8.9,-1.5,30.30,NNW,338,2.0,8.0,62,0.00,,,0.00,WUHU216HW,2013-02-10 02:45:00,
2013-02-09 21:50:00,8.9,-1.5,30.30,SSW,203,0.0,8.0,62,0.00,,,0.00,WUHU216HW,2013-02-10 02:50:00,
2013-02-09 21:55:00,8.9,-1.5,30.30,NW,315,1.0,4.0,62,0.00,,,0.00,WUHU216HW,2013-02-10 02:55:00,
2013-02-09 22:01:00,8.9,-1.5,30.30,WSW,248,2.0,8.0,62,0.00,,,0.00,WUHU216HW,2013-02-10 03:01:00,
2013-02-09 22:06:00,9.1,-1.3,30.31,NNE,21,3.0,8.0,62,0.00,,,0.00,WUHU216HW,2013-02-10 03:06:00,
2013-02-09 22:11:00,9.1,-1.3,30.32,WSW,248,2.0,12.0,62,0.00,,,0.00,WUHU216HW,2013-02-10 03:11:00,
2013-02-09 22:16:00,8.9,-1.5,30.32,South,180,2.0,12.0,62,0.00,,,0.00,WUHU216HW,2013-02-10 03:16:00,
2013-02-09 22:21:00,9.1,-1.3,30.32,NNW,338,3.0,4.0,62,0.00,,,0.00,WUHU216HW,2013-02-10 03:21:00,
2013-02-09 22:26:00,9.1,-1.3,30.33,WNW,293,6.0,6.0,62,0.00,,,0.00,WUHU216HW,2013-02-10 03:26:00,
2013-02-09 22:32:00,9.1,-1.3,30.32,NE,45,3.0,6.0,62,0.00,,,0.00,WUHU216HW,2013-02-10 03:32:00,
2013-02-09 22:37:00,9.1,-1.6,30.32,ESE,113,0.0,5.0,61,0.00,,,0.00,WUHU216HW,2013-02-10 03:37:00,
2013-02-09 22:42:00,9.1,-1.6,30.32,North,356,4.0,7.0,61,0.00,,,0.00,WUHU216HW,2013-02-10 03:42:00,
2013-02-09 22:47:00,9.1,-1.6,30.33,East,90,4.0,7.0,61,0.00,,,0.00,WUHU216HW,2013-02-10 03:47:00,
2013-02-09 22:52:00,9.3,-1.5,30.33,WSW,248,4.0,6.0,61,0.00,,,0.00,WUHU216HW,2013-02-10 03:52:00,
2013-02-09 22:57:00,9.1,-1.6,30.33,SW,225,5.0,6.0,61,0.00,,,0.00,WUHU216HW,2013-02-10 03:57:00,
2013-02-09 23:02:00,8.9,-1.8,30.33,SSW,203,2.0,6.0,61,0.00,,,0.00,WUHU216HW,2013-02-10 04:02:00,
2013-02-09 23:07:00,8.4,-2.0,30.33,ESE,113,0.0,6.0,62,0.00,,,0.00,WUHU216HW,2013-02-10 04:07:00,
2013-02-09 23:13:00,8.4,-2.0,30.33,NNW,329,2.0,3.0,62,0.00,,,0.00,WUHU216HW,2013-02-10 04:13:00,
2013-02-09 23:18:00,8.2,-2.2,30.33,WSW,248,0.0,3.0,62,0.00,,,0.00,WUHU216HW,2013-02-10 04:18:00,
2013-02-09 23:24:00,7.8,-2.5,30.34,SW,225,2.0,4.0,62,0.00,,,0.00,WUHU216HW,2013-02-10 04:24:00,
2013-02-09 23:29:00,7.5,-2.8,30.34,SW,225,2.0,4.0,62,0.00,,,0.00,WUHU216HW,2013-02-10 04:29:00,
2013-02-09 23:34:00,7.1,-3.2,30.34,SW,225,1.0,2.0,62,0.00,,,0.00,WUHU216HW,2013-02-10 04:34:00,
2013-02-09 23:39:00,6.9,-3.3,30.34,WSW,248,3.0,3.0,62,0.00,,,0.00,WUHU216HW,2013-02-10 04:39:00,
2013-02-09 23:44:00,6.9,-3.0,30.34,WNW,293,4.0,4.0,63,0.00,,,0.00,WUHU216HW,2013-02-10 04:44:00,
2013-02-09 23:49:00,6.6,-3.3,30.35,WNW,293,2.0,4.0,63,0.00,,,0.00,WUHU216HW,2013-02-10 04:49:00,
2013-02-09 23:54:00,6.4,-3.5,30.35,SSW,203,5.0,5.0,63,0.00,,,0.00,WUHU216HW,2013-02-10 04:54:00,
2013-02-09 23:59:00,6.4,-3.2,30.35,North,0,0.0,5.0,64,0.00,,,0.00,WUHU216HW,2013-02-10 04:59:00,